Location: Columbia
(38.9520°N, 92.3340°W)
Time: 19:58:25
(UTC-06:00)

Cosmos 2219 Rocket - Visible Passes

Search period start: 18 February 2018 00:00
Search period end: 28 February 2018 00:00
Orbit: 826 x 848 km, 71.0° (Epoch: 18 February)

Date Brightness Start Highest point End Pass type
(mag) Time Alt. Az. Time Alt. Az. Time Alt. Az.
18 Feb 2.3 18:25:34 10° NNW 18:31:16 85° WSW 18:36:54 10° SSE visible
19 Feb 2.3 18:09:12 10° NNW 18:14:55 89° ENE 18:20:33 10° SSE visible
19 Feb 5.5 19:56:46 10° W 19:57:57 11° W 19:59:09 10° WSW visible
20 Feb 5.4 19:39:41 10° WNW 19:41:40 12° W 19:43:38 10° WSW visible
21 Feb 5.4 19:22:51 10° WNW 19:25:21 13° W 19:27:51 10° WSW visible
22 Feb 5.4 19:06:08 10° WNW 19:09:03 14° W 19:11:58 10° SW visible
23 Feb 5.4 18:49:30 10° WNW 18:52:45 16° W 18:56:00 10° SW visible
24 Feb 5.2 06:10:46 10° SSE 06:14:52 21° E 06:18:59 10° NE visible
24 Feb 5.3 18:32:54 10° WNW 18:36:27 17° W 18:40:00 10° SW visible
25 Feb 5.2 05:54:41 10° SE 05:58:33 19° E 06:02:26 10° NE visible
25 Feb 5.3 18:16:20 10° WNW 18:20:08 19° W 18:23:57 10° SW visible
26 Feb 5.2 05:38:37 10° SE 05:42:15 18° E 05:45:53 10° ENE visible
27 Feb 5.2 05:22:36 10° SE 05:25:56 16° E 05:29:17 10° ENE visible
